Location: Austin
(30.3000°N, 97.7500°W)
Time: 00:21:16
(UTC-05:00)

Cosmos 489 Rocket - Pass Details

Date: 15 May 2024
Orbit: 952 x 982 km, 74.0° (Epoch: 19 May)

Event Time Altitude Azimuth Distance (km) Brightness Sun altitude
Rises 22:02:40 0° 344° (NNW) 3,633 8.4 -20.2°
Reaches altitude 10° 22:05:12 10° 345° (NNW) 2,682 7.5 -20.6°
Maximum altitude 22:11:25 86° 73° (ENE) 958 4.4 -21.7°
Enters shadow 22:13:57 38° 161° (SSE) 1,405 4.9 -22.1°
